Khon Kaen, Thailand

11:01 AM +07 on April 29, 2017 (GMT +0700)
Khon Kaen

Weather History for VTUK - March, 2013

Change the Weather History Date:

Thursday, March 28, 2013

  Actual Average Record
Temperature  
Mean Temperature 89 °F -  
Max Temperature 104 °F 98 °F - ()
Min Temperature 74 °F 76 °F - ()
Cooling Degree Days 24    
Growing Degree Days 39 (Base 50)    
Moisture  
Dew Point 62 °F    
Average Humidity 37    
Maximum Humidity 69    
Minimum Humidity 18    
Precipitation  
Precipitation 0.00 in 0.08 in - ()
Sea Level Pressure  
Sea Level Pressure 29.74 in    
Wind  
Wind Speed 4 mph ()    
Max Wind Speed 9 mph    
Max Gust Speed -    
Visibility 6.1 miles    
Events      
T = Trace of Precipitation, MM = Missing Value Source: Averaged Metar Reports

Daily Weather History Graph

Daily Weather History Graph

Search for Another Location

Airport or City:

Trip Planner

Search our weather history database for the weather conditions in past years. The results will help you decide how hot, cold, wet, or windy it might be!

Date:

Astronomy

Mar. 28, 2013 Rise Set
Actual Time 6:06 AM +07 6:20 PM +07
Civil Twilight 5:45 AM +07 6:42 PM +07
Nautical Twilight 5:20 AM +07 7:07 PM +07
Astronomical Twilight 4:54 AM +07 7:32 PM +07
Moon 7:18 PM +07 (3/28) 6:26 AM +07 (3/28)
Length of Visible Light 12h 57m
Length of Day
12h 14m
Full, 99% of the Moon is Illuminated
Mar 28
Full
Apr 3
Last Quarter
Apr 10
New
Apr 18
First Quarter
Apr 26
Full

Hourly Weather History & Observations

Time (+07) Temp. Heat Index Dew Point Humidity Pressure Visibility Wind Dir Wind Speed Gust Speed Precip Events Conditions
1:00 AM 81 °F - 60 °F 39% 29.72 in 6 mi Calm Calm - -  
6:00 AM 77.0 °F - 64.4 °F 65% 29.77 in 5.6 mi SSW 3.5 mph - N/A   Unknown
7:00 AM 77 °F - 63 °F 53% 29.77 in 6 mi SSW 2.3 mph - -   Haze
7:00 AM 77.0 °F - 66.2 °F 69% 29.80 in 5.6 mi SSW 3.5 mph - N/A   Unknown
8:00 AM 80.6 °F 83.2 °F 68.0 °F 65% 29.80 in 5.6 mi SSW 5.8 mph - N/A   Clear
9:00 AM 86.0 °F 90.4 °F 69.8 °F 58% 29.86 in 6.2 mi SSW 5.8 mph - N/A   Unknown
10:00 AM 93.2 °F 97.7 °F 68.0 °F 44% 29.86 in 6.2 mi WSW 6.9 mph - N/A   Unknown
11:00 AM 96.8 °F 100.7 °F 66.2 °F 37% 29.80 in 6.2 mi SSW 5.8 mph - N/A   Unknown
12:00 PM 98.6 °F 100.0 °F 62.6 °F 30% 29.80 in 6.2 mi SSW 6.9 mph - N/A   Unknown
1:00 PM 100 °F - 61 °F 18% 29.71 in 6 mi SSE 3.5 mph - -   Scattered Clouds
1:00 PM 100.4 °F 103.6 °F 64.4 °F 31% 29.74 in 6.2 mi ESE 6.9 mph - N/A   Partly Cloudy
2:00 PM 102.2 °F 102.4 °F 59.0 °F 24% 29.71 in 6.2 mi South 8.1 mph - N/A   Partly Cloudy
3:00 PM 102.2 °F 101.4 °F 57.2 °F 22% 29.68 in 6.2 mi SSE 8.1 mph - N/A   Partly Cloudy
4:00 PM 102.2 °F 101.4 °F 57.2 °F 22% 29.65 in 6.2 mi South 9.2 mph - N/A   Unknown
5:00 PM 100.4 °F 99.7 °F 57.2 °F 24% 29.68 in 6.2 mi South 9.2 mph - N/A   Unknown
6:00 PM 96.8 °F 95.1 °F 55.4 °F 25% 29.68 in 6.2 mi South 5.8 mph - N/A   Unknown
7:00 PM 95 °F - 56 °F 18% 29.66 in 6 mi South 2.3 mph - -   Scattered Clouds
7:00 PM 91.4 °F 89.9 °F 57.2 °F 31% 29.71 in 6.2 mi South 3.5 mph - N/A   Partly Cloudy
8:00 PM 91.4 °F 90.7 °F 59.0 °F 34% 29.71 in 6.2 mi SSE 3.5 mph - N/A   Partly Cloudy